Tracking 31027 objects as of 19-Jul-2025
HD Live streaming from Space Station
objects crossing your sky now

SJ-23 AKM

Track SJ-23 AKM now!


NORAD ID: 55180
Int'l Code: 2023-002C
Perigee: 36,045.5 km
Apogee: 36,057.7 km
Inclination: 2.9 °
Period: 1,449.3 minutes
Semi major axis: 42422 km
RCS: Unknown
Launch date: January 8, 2023
Source: People's Republic of China (PRC)
Launch site: Wenchang Satellite Launch Center (WSC)

Note: This is a ROCKET BODY
Your satellite tracking list
FENGYUN 1C DEB
Track 1 satellite(s)




NASA's NSSDC Master Catalog

Two Line Element Set (TLE):
1 55180U 23002C   25199.61669090  .00000052  00000-0  00000-0 0  9996
2 55180   2.8801  82.7863 0001431 267.8851 199.3703  0.99358974  9094
Source of the keplerian elements: AFSPC